星链-5572 (STARLINK-5572 )

导读 | 豆包AI

STARLINK-5572是美国太空探索技术公司(SpaceX)星链互联网星座中的一颗卫星,于美国东部时间2023年1月26日发射入轨,属于星链项目批量发射组网卫星之一,主要为全球范围内用户提供低延迟、高速率的卫星互联网接入服务,是SpaceX推进星链大规模组网部署的重要组成部分。

基本信息
目录编号:
55378
目录名称:
STARLINK-5572
国际标识:
2023-013AZ
轨道中心:
EARTH
卫星名称:
星链-5572
卫星全名:
星链-5572 (STARLINK-5572 )
卫星状态:
在轨 (已飞行1144 天)
发射日期:
2023-01-26 UTC
国别 :
美国 (US)
星等 :
--
轨道信息
数据来源 国际轨道数据
星历时间: 2026-03-15T05:14:56+0800
17小时前
查看轨道信息
半长轴: 6937.188km
偏心率: 0.000098
轨道倾角: 43.004°
近地点辐角 261.023°
升交点赤经 284.862°
平近点角 99.050°
近地点: 558.371km
远地点: 559.731km
周期: 95.837分钟
每日圈数: 15.025453
详细信息
固有亮度:
5
最大亮度:
2.5
卫星平台:
Starlink v1.5
覆盖范围:
全球
运营商:
太空探索技术公司
运营商所在国:
美国
制造商(研发单位):
太空探索技术公司
制造商所在国:
美国
使用方式:
暂无
卫星简介
星链(Starlink)计划是由太空探索技术公司(SpaceX)提出的一个巨型低轨卫星互联网星座项目,计划在2019年至2024年间在太空搭建由约1.2万颗卫星组成的“星链”网络,其中1584颗将部署在地球上空550千米处的近地轨道,并从2020年开始工作。该卫星仍在工作。
2D轨道图
3D轨道图
轨道高度分析图
轨道倾角分析图
轨道综合分析图
查看轨道综合分析图